Volver al catálogo

METEOR 1-22 DEB

ActivoPO
NORAD 36302·DEBRIS·🇷🇺 Russia

Lanzado Sep 18, 1975 desde Plesetsk Cosmodrome

Loading…

Próximos Pases (próximas 24 horas)

TLE

ActualizadoSource: Space-Track

Época: Sep 14, 2026, 06:11 UTC

1 36302U 75087C   26257.25779494  .00000163  00000-0  81022-4 0  9997
2 36302  81.2533 347.5992 0110954 222.1279 166.5268 14.09804299903464

Sigue METEOR 1-22 DEB en tiempo real con AllMySat

Download on the App Store